Willmar, MN

2:33 AM CDT on June 28, 2017 (GMT -0500)
Willmar

Weather History for KBDH - July, 2013

Change the Weather History Date:

Friday, July 19, 2013

  Actual Average (KBBB) Record (KBBB)
Temperature  
Mean Temperature 76 °F -  
Max Temperature 84 °F 83 °F 98 °F (1977)
Min Temperature 69 °F 61 °F 33 °F (2000)
Cooling Degree Days 12    
Growing Degree Days 26 (Base 50)    
Moisture  
Dew Point 61 °F    
Average Humidity 57    
Maximum Humidity 78    
Minimum Humidity 35    
Precipitation  
Precipitation 0.00 in - - ()
Sea Level Pressure  
Sea Level Pressure 29.88 in    
Wind  
Wind Speed 10 mph (WNW)    
Max Wind Speed 21 mph    
Max Gust Speed 23 mph    
Visibility 10 miles    
Events      
Averages and records for this station are not official NWS values.
T = Trace of Precipitation, MM = Missing Value Source: NWS Daily Summary

Daily Weather History Graph

Daily Weather History Graph

Search for Another Location

Airport or City:

Trip Planner

Search our weather history database for the weather conditions in past years. The results will help you decide how hot, cold, wet, or windy it might be!

Date:

Astronomy

Jul. 19, 2013 Rise Set
Actual Time 5:51 AM CDT 9:01 PM CDT
Civil Twilight 5:16 AM CDT 9:36 PM CDT
Nautical Twilight 4:30 AM CDT 10:22 PM CDT
Astronomical Twilight 3:34 AM CDT 11:18 PM CDT
Moon 6:04 PM CDT (7/19) 2:34 AM CDT (7/19)
Length of Visible Light 16h 20m
Length of Day
15h 09m
Waxing Gibbous, 87% of the Moon is Illuminated
Jul 19
Waxing Gibbous
Jul 22
Full
Jul 29
Last Quarter
Aug 6
New
Aug 14
First Quarter

Hourly Weather History & Observations

Time (CDT) Temp. Heat Index Dew Point Humidity Pressure Visibility Wind Dir Wind Speed Gust Speed Precip Events Conditions
12:15 AM 82.4 °F 85.4 °F 68.0 °F 62% 29.79 in 10.0 mi SW 9.2 mph - N/A   Clear
12:35 AM 82.4 °F 85.4 °F 68.0 °F 62% 29.80 in 10.0 mi WSW 10.4 mph - N/A   Scattered Clouds
12:55 AM 82.4 °F 85.4 °F 68.0 °F 62% 29.80 in 10.0 mi West 10.4 mph - N/A   Scattered Clouds
1:15 AM 80.6 °F 83.2 °F 68.0 °F 65% 29.80 in 10.0 mi West 9.2 mph - N/A   Clear
1:35 AM 80.6 °F 83.9 °F 69.8 °F 70% 29.81 in 10.0 mi West 6.9 mph - N/A   Clear
1:55 AM 80.6 °F 83.9 °F 69.8 °F 70% 29.81 in 10.0 mi West 9.2 mph - N/A   Mostly Cloudy
2:15 AM 82.4 °F 85.4 °F 68.0 °F 62% 29.81 in 10.0 mi West 10.4 mph - N/A   Scattered Clouds
2:35 AM 80.6 °F 83.9 °F 69.8 °F 70% 29.80 in 10.0 mi West 8.1 mph - N/A   Clear
2:55 AM 78.8 °F - 68.0 °F 69% 29.80 in 10.0 mi West 5.8 mph - N/A   Clear
3:15 AM 77.0 °F - 69.8 °F 78% 29.80 in 10.0 mi West 6.9 mph - N/A   Clear
3:35 AM 77.0 °F - 68.0 °F 74% 29.79 in 10.0 mi West 5.8 mph - N/A   Clear
3:55 AM 77.0 °F - 68.0 °F 74% 29.79 in 10.0 mi West 6.9 mph - N/A   Scattered Clouds
4:15 AM 75.2 °F - 68.0 °F 78% 29.79 in 10.0 mi West 8.1 mph - N/A   Scattered Clouds
4:35 AM 75.2 °F - 66.2 °F 73% 29.79 in 10.0 mi West 8.1 mph - N/A   Scattered Clouds
4:55 AM 75.2 °F - 66.2 °F 73% 29.80 in 10.0 mi West 9.2 mph - N/A   Scattered Clouds
5:15 AM 75.2 °F - 64.4 °F 69% 29.80 in 10.0 mi WNW 9.2 mph - N/A   Clear
5:35 AM 73.4 °F - 64.4 °F 73% 29.81 in 10.0 mi WNW 9.2 mph - N/A   Clear
5:55 AM 73.4 °F - 62.6 °F 69% 29.83 in 10.0 mi WNW 10.4 mph - N/A   Clear
6:15 AM 73.4 °F - 62.6 °F 69% 29.83 in 10.0 mi WNW 11.5 mph - N/A   Clear
6:35 AM 73.4 °F - 62.6 °F 69% 29.84 in 10.0 mi NW 10.4 mph - N/A   Clear
6:55 AM 73.4 °F - 62.6 °F 69% 29.85 in 10.0 mi NW 9.2 mph - N/A   Clear
7:16 AM 73.4 °F - 62.6 °F 69% 29.86 in 10.0 mi WNW 12.7 mph 16.1 mph N/A   Clear
7:35 AM 73.4 °F - 62.6 °F 69% 29.86 in 10.0 mi NW 12.7 mph 17.3 mph N/A   Clear
7:55 AM 73.4 °F - 60.8 °F 65% 29.87 in 10.0 mi NW 17.3 mph - N/A   Clear
8:16 AM 73.4 °F - 60.8 °F 65% 29.88 in 10.0 mi WNW 13.8 mph - N/A   Clear
8:35 AM 75.2 °F - 60.8 °F 61% 29.88 in 10.0 mi NW 17.3 mph 23.0 mph N/A   Clear
8:55 AM 75.2 °F - 60.8 °F 61% 29.90 in 10.0 mi NW 15.0 mph 23.0 mph N/A   Clear
9:16 AM 75.2 °F - 60.8 °F 61% 29.91 in 10.0 mi NW 20.7 mph - N/A   Clear
9:35 AM 75.2 °F - 60.8 °F 61% 29.91 in 10.0 mi NW 16.1 mph - N/A   Clear
9:55 AM 75.2 °F - 60.8 °F 61% 29.91 in 10.0 mi NNW 16.1 mph - N/A   Scattered Clouds
10:16 AM 75.2 °F - 60.8 °F 61% 29.91 in 10.0 mi NW 17.3 mph - N/A   Scattered Clouds
10:35 AM 77.0 °F - 59.0 °F 54% 29.92 in 10.0 mi NW 15.0 mph - N/A   Clear
10:55 AM 77.0 °F - 59.0 °F 54% 29.93 in 10.0 mi NW 12.7 mph - N/A   Clear
11:16 AM 78.8 °F - 59.0 °F 51% 29.93 in 10.0 mi WNW 10.4 mph - N/A   Clear
11:35 AM 78.8 °F - 57.2 °F 47% 29.94 in 10.0 mi NNW 8.1 mph 16.1 mph N/A   Clear
11:55 AM 78.8 °F - 57.2 °F 47% 29.94 in 10.0 mi NNW 13.8 mph 17.3 mph N/A   Clear
12:14 PM 80.6 °F 80.8 °F 57.2 °F 45% 29.94 in 10.0 mi NNW 9.2 mph 16.1 mph N/A   Clear
12:35 PM 80.6 °F 80.8 °F 57.2 °F 45% 29.94 in 10.0 mi NW 8.1 mph 16.1 mph N/A   Clear
12:55 PM 80.6 °F 80.5 °F 55.4 °F 42% 29.94 in 10.0 mi WNW 12.7 mph - N/A   Clear
1:15 PM 82.4 °F 82.0 °F 57.2 °F 42% 29.94 in 10.0 mi WNW 11.5 mph 16.1 mph N/A   Clear
1:35 PM 82.4 °F 82.0 °F 57.2 °F 42% 29.94 in 10.0 mi NW 13.8 mph 17.3 mph N/A   Clear
1:55 PM 82.4 °F 81.7 °F 55.4 °F 39% 29.93 in 10.0 mi WNW 11.5 mph - N/A   Clear
2:15 PM 82.4 °F 81.7 °F 55.4 °F 39% 29.94 in 10.0 mi WNW 15.0 mph 18.4 mph N/A   Clear
2:35 PM 82.4 °F 81.7 °F 55.4 °F 39% 29.94 in 10.0 mi WNW 16.1 mph - N/A   Clear
2:55 PM 84.2 °F 82.8 °F 53.6 °F 35% 29.94 in 10.0 mi NW 15.0 mph 20.7 mph N/A   Clear
3:15 PM 84.2 °F 82.8 °F 53.6 °F 35% 29.93 in 10.0 mi NW 17.3 mph 21.9 mph N/A   Clear
3:35 PM 84.2 °F 82.8 °F 53.6 °F 35% 29.93 in 10.0 mi NNW 16.1 mph 20.7 mph N/A   Clear
3:55 PM 84.2 °F 82.8 °F 53.6 °F 35% 29.93 in 10.0 mi WNW 15.0 mph 20.7 mph N/A   Clear
4:15 PM 84.2 °F 82.8 °F 53.6 °F 35% 29.93 in 10.0 mi NW 16.1 mph 19.6 mph N/A   Clear
4:35 PM 82.4 °F 81.7 °F 55.4 °F 39% 29.93 in 10.0 mi NW 12.7 mph - N/A   Clear
4:55 PM 84.2 °F 83.0 °F 55.4 °F 37% 29.92 in 10.0 mi NW 11.5 mph - N/A   Clear
5:15 PM 84.2 °F 83.5 °F 57.2 °F 40% 29.92 in 10.0 mi NW 12.7 mph - N/A   Clear
5:35 PM 82.4 °F 82.0 °F 57.2 °F 42% 29.91 in 10.0 mi NW 11.5 mph 16.1 mph N/A   Clear
5:55 PM 84.2 °F 83.0 °F 55.4 °F 37% 29.91 in 10.0 mi NW 10.4 mph - N/A   Clear
6:15 PM 84.2 °F 83.0 °F 55.4 °F 37% 29.90 in 10.0 mi WNW 9.2 mph - N/A   Clear
6:35 PM 82.4 °F 81.7 °F 55.4 °F 39% 29.90 in 10.0 mi NW 9.2 mph - N/A   Clear
6:55 PM 82.4 °F 81.7 °F 55.4 °F 39% 29.90 in 10.0 mi WNW 5.8 mph - N/A   Clear
7:15 PM 82.4 °F 82.0 °F 57.2 °F 42% 29.90 in 10.0 mi West 5.8 mph - N/A   Clear
7:35 PM 82.4 °F 82.5 °F 59.0 °F 45% 29.90 in 10.0 mi West 4.6 mph - N/A   Clear
7:55 PM 80.6 °F 81.1 °F 59.0 °F 48% 29.90 in 10.0 mi West 4.6 mph - N/A   Clear
8:15 PM 78.8 °F - 62.6 °F 57% 29.90 in 10.0 mi WSW 3.5 mph - N/A   Clear
8:35 PM 78.8 °F - 62.6 °F 57% 29.90 in 10.0 mi SW 3.5 mph - N/A   Clear
8:55 PM 77.0 °F - 62.6 °F 61% 29.90 in 10.0 mi WSW 3.5 mph - N/A   Clear
9:15 PM 75.2 °F - 62.6 °F 65% 29.90 in 10.0 mi SW 4.6 mph - N/A   Clear
9:35 PM 75.2 °F - 60.8 °F 61% 29.90 in 10.0 mi SW 6.9 mph - N/A   Clear
9:55 PM 73.4 °F - 62.6 °F 69% 29.91 in 10.0 mi SW 3.5 mph - N/A   Clear
10:15 PM 75.2 °F - 60.8 °F 61% 29.92 in 10.0 mi Calm Calm - N/A   Scattered Clouds
10:35 PM 73.4 °F - 62.6 °F 69% 29.92 in 10.0 mi WSW 3.5 mph - N/A   Scattered Clouds
10:55 PM 71.6 °F - 60.8 °F 69% 29.94 in 10.0 mi NNE 10.4 mph - N/A   Scattered Clouds
11:15 PM 71.6 °F - 59.0 °F 64% 29.94 in 10.0 mi NE 4.6 mph - N/A   Scattered Clouds
11:35 PM 69.8 °F - 59.0 °F 68% 29.93 in 10.0 mi Calm Calm - N/A   Clear
11:55 PM 69.8 °F - 59.0 °F 68% 29.93 in 10.0 mi Calm Calm - N/A   Clear